Regional Weather Roundup
Issued by NWS

Home | Current Version | Previous Version | Graphics & Text | Print | Product List | Glossary On
Versions: 1 2 3 4 5 6 7 8 9 10 11 12 13 14 15 16 17 18 19 20 21 22 23 24 25 26 27 28 29 30 31 32 33 34 35 36 37 38 39 40 41 42 43 44 45 46 47 48 49 50
000
ASUS43 KFSD 030510
RWRSD

WEATHER ROUNDUP FOR SOUTH DAKOTA
NATIONAL WEATHER SERVICE SIOUX FALLS SD
1100 PM CST MON MAR 02 2015

NOTE: "FAIR" INDICATES FEW OR NO CLOUDS BELOW 12,000 FEET WITH NO
SIGNIFICANT WEATHER AND/OR OBSTRUCTIONS TO VISIBILITY.


SDZ001>005-009-010-012>017-030600-
NORTHWEST AND NORTH CENTRAL SOUTH DAKOTA

CITY           SKY/WX    TMP DP  RH WIND       PRES   REMARKS
BUFFALO          N/A     25  18  74 N24G31    29.71R WCI   9
FAITH            N/A     34  13  41 N9        29.69S WCI  27
MOBRIDGE       FAIR      34  19  54 S7        29.69R WCI  28
$$

SDZ012>016-024>037-041>051-057-063-072>074-030600-
SOUTHWEST AND SOUTH CENTRAL SOUTH DAKOTA

CITY           SKY/WX    TMP DP  RH WIND       PRES   REMARKS
RAPID CTY ARPT FLURRIES  36  23  59 N9        29.70R
PIERRE         CLOUDY    36  20  52 SE9       29.71F
CUSTER         LGT SNOW  25  21  85 NE12      29.60F FOG     WCI  14
ELLSWORTH AFB  MOCLDY    36  19  51 N13       29.68
PHILIP         FLURRIES  36  28  73 W9        29.70R
PINE RIDGE     LGT SNOW  30  24  78 S5        29.67R WCI  25
SPEARFISH      CLOUDY    32  18  55 N17       29.73R WCI  21
WINNER         FAIR      34  16  47 S14       29.73F WCI  25
$$

SDZ004>011-016>023-039-040-030600-
NORTHEAST SOUTH DAKOTA

CITY           SKY/WX    TMP DP  RH WIND       PRES   REMARKS
ABERDEEN       FAIR      30  21  69 S20G26    29.77F WCI  17
WATERTOWN      CLOUDY    26  21  81 S23       29.82F WCI  11
SISSETON         N/A     27  21  78 S17G25    29.82F WCI  14
$$

SDZ017-020-022-023-036>040-048>070-030600-
SOUTHEAST SOUTH DAKOTA

CITY           SKY/WX    TMP DP  RH WIND       PRES   REMARKS
SIOUX FALLS    CLOUDY    28  19  69 SE23      29.88F WCI  14
HURON          CLOUDY    31  21  66 S16       29.80F WCI  20
CHAMBERLAIN    MOCLDY    34  17  50 S10       29.76F WCI  26
MITCHELL       FAIR      31  21  66 MISG      29.83F
YANKTON        FAIR      32  19  59 SE12      29.88F WCI  23
$$

ABBREVIATIONS USED IN REMARKS
   TC - TEMPERATURE IN CELSIUS
  WCI - WIND CHILL INDEX
   HX - HEAT INDEX
  VSB - VISIBILITY




USA.gov is the U.S. government's official web portal to all federal, state and local government web resources and services.